Wetterdaten: Sonntag, 18.01.2015
Datum Zeit Auen-Temp. Temp. -10 cm Luftfeuchte Luftfeuchte Luftdruck Regen Wind Richtung Richtung Taupunkt Windchill Windben
18.01.2015 00:00 -1,4 C 1,9 C 90 % 85 % 1017,6 hPa 0,0 l/m 0,0 km/h (0 Bft) N 360 -2,8 C 0,1 C 0,0 km/h (0 Bft)
18.01.2015 00:05 -1,3 C 1,9 C 91 % 85 % 1017,6 hPa 0,0 l/m 0,0 km/h (0 Bft) N 360 -2,6 C 0,1 C 0,0 km/h (0 Bft)
18.01.2015 00:10 -1,3 C 1,9 C 91 % 86 % 1017,6 hPa 0,0 l/m 0,0 km/h (0 Bft) N 360 -2,6 C 0,1 C 0,0 km/h (0 Bft)
18.01.2015 00:15 -1,4 C 1,9 C 91 % 86 % 1017,6 hPa 0,0 l/m 0,0 km/h (0 Bft) N 360 -2,7 C 0,1 C 0,0 km/h (0 Bft)
18.01.2015 00:20 -1,5 C 1,9 C 91 % 86 % 1017,6 hPa 0,0 l/m 0,0 km/h (0 Bft) N 360 -2,8 C 0,1 C 0,0 km/h (0 Bft)
18.01.2015 00:25 -1,6 C 1,9 C 91 % 86 % 1017,6 hPa 0,0 l/m 0,0 km/h (0 Bft) N 360 -2,9 C 0,1 C 0,0 km/h (0 Bft)
18.01.2015 00:30 -1,7 C 1,9 C 91 % 86 % 1017,6 hPa 0,0 l/m 0,0 km/h (0 Bft) N 360 -3,0 C 0,1 C 0,0 km/h (0 Bft)
18.01.2015 00:35 -1,9 C 1,9 C 91 % 86 % 1017,6 hPa 0,0 l/m 0,0 km/h (0 Bft) N 360 -3,2 C 0,1 C 0,0 km/h (0 Bft)
18.01.2015 00:40 -1,9 C 1,9 C 91 % 86 % 1017,5 hPa 0,0 l/m 0,0 km/h (0 Bft) N 360 -3,2 C 0,1 C 0,0 km/h (0 Bft)
18.01.2015 00:45 -2,0 C 1,9 C 91 % 85 % 1017,5 hPa 0,0 l/m 0,0 km/h (0 Bft) N 360 -3,3 C 0,1 C 0,0 km/h (0 Bft)
18.01.2015 00:50 -2,2 C 1,9 C 91 % 86 % 1017,5 hPa 0,0 l/m 0,0 km/h (0 Bft) N 360 -3,5 C 0,1 C 0,0 km/h (0 Bft)
18.01.2015 00:55 -2,3 C 1,9 C 91 % 86 % 1017,5 hPa 0,0 l/m 0,0 km/h (0 Bft) N 360 -3,6 C 0,1 C 0,0 km/h (0 Bft)
18.01.2015 01:00 -2,4 C 1,9 C 91 % 86 % 1017,4 hPa 0,0 l/m 0,0 km/h (0 Bft) N 360 -3,7 C 0,1 C 0,0 km/h (0 Bft)
18.01.2015 01:05 -2,4 C 1,9 C 91 % 86 % 1017,4 hPa 0,0 l/m 0,0 km/h (0 Bft) N-NW 337 -3,7 C -2,9 C 0,0 km/h (0 Bft)
18.01.2015 01:10 -2,3 C 1,9 C 91 % 86 % 1017,4 hPa 0,0 l/m 0,0 km/h (0 Bft) N-NW 337 -3,6 C -2,9 C 0,0 km/h (0 Bft)
18.01.2015 01:15 -2,2 C 1,9 C 91 % 86 % 1017,4 hPa 0,0 l/m 0,0 km/h (0 Bft) N-NW 337 -3,5 C -2,8 C 0,0 km/h (0 Bft)
18.01.2015 01:20 -2,1 C 1,9 C 91 % 86 % 1017,5 hPa 0,0 l/m 0,0 km/h (0 Bft) N-NW 337 -3,4 C -2,8 C 0,0 km/h (0 Bft)
18.01.2015 01:25 -2,1 C 1,9 C 91 % 86 % 1017,5 hPa 0,0 l/m 0,0 km/h (0 Bft) N-NW 337 -3,4 C -2,8 C 0,0 km/h (0 Bft)
18.01.2015 01:30 -2,0 C 1,9 C 91 % 86 % 1017,5 hPa 0,0 l/m 0,0 km/h (0 Bft) N-NW 337 -3,3 C -2,6 C 0,0 km/h (0 Bft)
18.01.2015 01:35 -2,0 C 1,9 C 91 % 86 % 1017,5 hPa 0,0 l/m 0,0 km/h (0 Bft) N-NW 337 -3,3 C -2,6 C 0,0 km/h (0 Bft)
18.01.2015 01:40 -2,0 C 1,9 C 91 % 86 % 1017,6 hPa 0,0 l/m 0,0 km/h (0 Bft) N-NW 337 -3,3 C -2,5 C 0,0 km/h (0 Bft)
18.01.2015 01:45 -1,9 C 1,9 C 91 % 86 % 1017,6 hPa 0,0 l/m 0,0 km/h (0 Bft) N-NW 337 -3,2 C -2,4 C 0,0 km/h (0 Bft)
18.01.2015 01:50 -1,8 C 1,9 C 92 % 86 % 1017,6 hPa 0,0 l/m 0,0 km/h (0 Bft) N-NW 337 -2,9 C -2,3 C 0,0 km/h (0 Bft)
18.01.2015 01:55 -1,8 C 1,9 C 92 % 86 % 1017,6 hPa 0,0 l/m 0,0 km/h (0 Bft) N-NW 337 -2,9 C -2,3 C 0,0 km/h (0 Bft)
18.01.2015 02:00 -1,7 C 1,9 C 92 % 86 % 1017,6 hPa 0,0 l/m 0,0 km/h (0 Bft) N-NW 337 -2,8 C -2,2 C 0,0 km/h (0 Bft)
18.01.2015 02:05 -1,6 C 1,9 C 92 % 86 % 1017,6 hPa 0,0 l/m 0,0 km/h (0 Bft) N-NW 337 -2,7 C -2,2 C 0,0 km/h (0 Bft)
18.01.2015 02:10 -1,5 C 1,9 C 92 % 86 % 1017,6 hPa 0,0 l/m 0,0 km/h (0 Bft) N-NW 337 -2,6 C -2,0 C 0,0 km/h (0 Bft)
18.01.2015 02:15 -1,5 C 1,9 C 92 % 86 % 1017,6 hPa 0,0 l/m 0,0 km/h (0 Bft) N-NW 337 -2,6 C -2,0 C 0,0 km/h (0 Bft)
18.01.2015 02:20 -1,5 C 1,9 C 92 % 86 % 1017,6 hPa 0,0 l/m 0,0 km/h (0 Bft) N-NW 337 -2,6 C -1,9 C 0,0 km/h (0 Bft)
18.01.2015 02:25 -1,6 C 1,9 C 92 % 86 % 1017,6 hPa 0,0 l/m 0,0 km/h (0 Bft) N-NW 337 -2,7 C -1,9 C 0,0 km/h (0 Bft)
18.01.2015 02:30 -1,6 C 1,9 C 92 % 86 % 1017,6 hPa 0,0 l/m 0,0 km/h (0 Bft) N-NW 337 -2,7 C -2,0 C 0,0 km/h (0 Bft)
18.01.2015 02:35 -1,6 C 1,9 C 92 % 86 % 1017,6 hPa 0,0 l/m 0,0 km/h (0 Bft) N-NW 337 -2,7 C -2,0 C 0,0 km/h (0 Bft)
18.01.2015 02:40 -1,6 C 1,9 C 92 % 86 % 1017,6 hPa 0,0 l/m 0,0 km/h (0 Bft) N-NW 337 -2,7 C -2,0 C 0,0 km/h (0 Bft)
18.01.2015 02:45 -1,6 C 1,9 C 92 % 86 % 1017,6 hPa 0,0 l/m 0,0 km/h (0 Bft) N-NW 337 -2,7 C -2,0 C 0,0 km/h (0 Bft)
18.01.2015 02:50 -1,5 C 1,9 C 92 % 86 % 1017,6 hPa 0,0 l/m 0,0 km/h (0 Bft) N-NW 337 -2,6 C -2,0 C 0,0 km/h (0 Bft)
18.01.2015 02:55 -1,5 C 1,9 C 92 % 86 % 1017,6 hPa 0,0 l/m 0,0 km/h (0 Bft) N-NW 337 -2,6 C -2,0 C 0,0 km/h (0 Bft)
18.01.2015 03:00 -1,4 C 1,9 C 92 % 86 % 1017,6 hPa 0,0 l/m 0,0 km/h (0 Bft) N-NW 337 -2,5 C -1,9 C 0,0 km/h (0 Bft)
18.01.2015 03:05 -1,4 C 1,9 C 92 % 86 % 1017,6 hPa 0,0 l/m 0,0 km/h (0 Bft) N-NW 337 -2,5 C -1,9 C 0,0 km/h (0 Bft)
18.01.2015 03:10 -1,4 C 1,9 C 92 % 86 % 1017,6 hPa 0,0 l/m 0,0 km/h (0 Bft) N-NW 337 -2,5 C -1,9 C 0,0 km/h (0 Bft)
18.01.2015 03:15 -1,4 C 1,9 C 92 % 86 % 1017,6 hPa 0,0 l/m 0,0 km/h (0 Bft) N-NW 337 -2,5 C -1,9 C 0,0 km/h (0 Bft)
18.01.2015 03:20 -1,3 C 1,9 C 92 % 86 % 1017,5 hPa 0,0 l/m 0,0 km/h (0 Bft) N-NW 337 -2,4 C -1,9 C 0,0 km/h (0 Bft)
18.01.2015 03:25 -1,3 C 1,9 C 92 % 86 % 1017,5 hPa 0,0 l/m 0,0 km/h (0 Bft) N-NW 337 -2,4 C -1,9 C 0,0 km/h (0 Bft)
18.01.2015 03:30 -1,4 C 1,9 C 92 % 86 % 1017,5 hPa 0,0 l/m 0,0 km/h (0 Bft) N-NW 337 -2,5 C -1,8 C 0,0 km/h (0 Bft)
18.01.2015 03:35 -1,4 C 1,9 C 92 % 86 % 1017,5 hPa 0,0 l/m 0,0 km/h (0 Bft) N-NW 337 -2,5 C -1,8 C 0,0 km/h (0 Bft)
18.01.2015 03:40 -1,4 C 1,9 C 92 % 86 % 1017,5 hPa 0,0 l/m 0,0 km/h (0 Bft) N-NW 337 -2,5 C -1,8 C 0,0 km/h (0 Bft)
18.01.2015 03:45 -1,3 C 1,9 C 92 % 86 % 1017,5 hPa 0,0 l/m 0,0 km/h (0 Bft) N-NW 337 -2,4 C -1,8 C 0,0 km/h (0 Bft)
18.01.2015 03:50 -1,3 C 1,9 C 92 % 86 % 1017,5 hPa 0,0 l/m 0,0 km/h (0 Bft) N-NW 337 -2,4 C -1,8 C 0,0 km/h (0 Bft)
18.01.2015 03:55 -1,3 C 1,9 C 92 % 86 % 1017,5 hPa 0,0 l/m 0,0 km/h (0 Bft) N-NW 337 -2,4 C -1,7 C 0,0 km/h (0 Bft)
18.01.2015 04:00 -1,3 C 1,9 C 92 % 86 % 1017,5 hPa 0,0 l/m 0,0 km/h (0 Bft) N-NW 337 -2,4 C -1,7 C 0,0 km/h (0 Bft)
18.01.2015 04:05 -1,3 C 1,9 C 92 % 86 % 1017,5 hPa 0,0 l/m 0,0 km/h (0 Bft) N-NW 337 -2,4 C -1,7 C 0,0 km/h (0 Bft)
18.01.2015 04:10 -1,2 C 1,9 C 92 % 87 % 1017,5 hPa 0,0 l/m 0,0 km/h (0 Bft) N-NW 337 -2,3 C -1,7 C 0,0 km/h (0 Bft)
18.01.2015 04:15 -1,2 C 1,9 C 92 % 87 % 1017,5 hPa 0,0 l/m 0,0 km/h (0 Bft) N-NW 337 -2,3 C -1,7 C 0,0 km/h (0 Bft)
18.01.2015 04:20 -1,1 C 1,9 C 92 % 87 % 1017,4 hPa 0,0 l/m 0,0 km/h (0 Bft) N-NW 337 -2,2 C -1,6 C 0,0 km/h (0 Bft)
18.01.2015 04:25 -1,1 C 1,9 C 92 % 87 % 1017,4 hPa 0,0 l/m 0,0 km/h (0 Bft) N-NW 337 -2,2 C -1,6 C 0,0 km/h (0 Bft)
18.01.2015 04:30 -1,0 C 1,9 C 92 % 87 % 1017,4 hPa 0,0 l/m 0,0 km/h (0 Bft) N-NW 337 -2,1 C -1,5 C 0,0 km/h (0 Bft)
18.01.2015 04:35 -1,0 C 1,9 C 92 % 87 % 1017,4 hPa 0,0 l/m 0,0 km/h (0 Bft) N-NW 337 -2,1 C -1,5 C 0,0 km/h (0 Bft)
18.01.2015 04:40 -1,0 C 1,9 C 92 % 87 % 1017,4 hPa 0,0 l/m 0,0 km/h (0 Bft) N-NW 337 -2,1 C -1,5 C 0,0 km/h (0 Bft)
18.01.2015 04:45 -1,0 C 1,9 C 92 % 87 % 1017,4 hPa 0,0 l/m 0,0 km/h (0 Bft) N-NW 337 -2,1 C -1,5 C 0,0 km/h (0 Bft)
18.01.2015 04:50 -1,0 C 1,9 C 92 % 87 % 1017,4 hPa 0,0 l/m 0,0 km/h (0 Bft) N-NW 337 -2,1 C -1,5 C 0,0 km/h (0 Bft)
18.01.2015 04:55 -1,0 C 1,9 C 92 % 87 % 1017,4 hPa 0,0 l/m 0,0 km/h (0 Bft) N-NW 337 -2,1 C -1,4 C 0,0 km/h (0 Bft)
18.01.2015 05:00 -0,9 C 1,9 C 92 % 87 % 1017,4 hPa 0,0 l/m 0,0 km/h (0 Bft) N-NW 337 -2,0 C -1,4 C 0,0 km/h (0 Bft)
18.01.2015 05:05 -1,0 C 1,9 C 92 % 87 % 1017,4 hPa 0,0 l/m 0,0 km/h (0 Bft) N-NW 337 -2,1 C -1,4 C 0,0 km/h (0 Bft)
18.01.2015 05:10 -1,0 C 1,9 C 92 % 87 % 1017,4 hPa 0,0 l/m 0,0 km/h (0 Bft) N-NW 337 -2,1 C -1,4 C 0,0 km/h (0 Bft)
18.01.2015 05:15 -0,9 C 1,9 C 92 % 87 % 1017,4 hPa 0,0 l/m 0,0 km/h (0 Bft) N-NW 337 -2,0 C -1,4 C 0,0 km/h (0 Bft)
18.01.2015 05:20 -0,9 C 1,9 C 92 % 87 % 1017,4 hPa 0,0 l/m 0,0 km/h (0 Bft) N-NW 337 -2,0 C -1,4 C 0,0 km/h (0 Bft)
18.01.2015 05:25 -0,9 C 1,9 C 92 % 87 % 1017,4 hPa 0,0 l/m 0,0 km/h (0 Bft) N-NW 337 -2,0 C -1,4 C 0,0 km/h (0 Bft)
18.01.2015 05:30 -0,9 C 1,9 C 92 % 87 % 1017,4 hPa 0,0 l/m 0,0 km/h (0 Bft) N-NW 337 -2,0 C -1,4 C 0,0 km/h (0 Bft)
18.01.2015 05:35 -0,9 C 1,9 C 92 % 87 % 1017,4 hPa 0,0 l/m 0,0 km/h (0 Bft) N-NW 337 -2,0 C -1,4 C 0,0 km/h (0 Bft)
18.01.2015 05:40 -0,9 C 1,9 C 92 % 87 % 1017,4 hPa 0,0 l/m 0,0 km/h (0 Bft) N-NW 337 -2,0 C -1,4 C 0,0 km/h (0 Bft)
18.01.2015 05:45 -0,9 C 1,9 C 92 % 87 % 1017,4 hPa 0,0 l/m 0,0 km/h (0 Bft) N-NW 337 -2,0 C -1,4 C 0,0 km/h (0 Bft)
18.01.2015 05:50 -1,0 C 1,9 C 92 % 87 % 1017,4 hPa 0,0 l/m 0,0 km/h (0 Bft) N-NW 337 -2,1 C -1,5 C 0,0 km/h (0 Bft)
18.01.2015 05:55 -0,9 C 1,9 C 92 % 87 % 1017,4 hPa 0,0 l/m 0,0 km/h (0 Bft) N-NW 337 -2,0 C -1,5 C 0,0 km/h (0 Bft)
18.01.2015 06:00 -0,9 C 1,9 C 92 % 87 % 1017,1 hPa 0,0 l/m 0,0 km/h (0 Bft) S 180 -2,0 C -1,5 C 0,0 km/h (0 Bft)
18.01.2015 06:05 -0,9 C 1,9 C 92 % 87 % 1017,1 hPa 0,0 l/m 0,0 km/h (0 Bft) S 180 -2,0 C -1,5 C 0,0 km/h (0 Bft)
18.01.2015 06:10 -1,0 C 1,9 C 92 % 87 % 1017,1 hPa 0,0 l/m 0,0 km/h (0 Bft) S 180 -2,1 C -1,5 C 0,0 km/h (0 Bft)
18.01.2015 06:15 -1,0 C 1,9 C 92 % 87 % 1017,1 hPa 0,0 l/m 0,0 km/h (0 Bft) S 180 -2,1 C -1,5 C 0,0 km/h (0 Bft)
18.01.2015 06:20 -1,0 C 1,9 C 92 % 87 % 1017,2 hPa 0,0 l/m 0,0 km/h (0 Bft) S 180 -2,1 C -1,6 C 0,0 km/h (0 Bft)
18.01.2015 06:25 -1,0 C 1,9 C 92 % 87 % 1017,2 hPa 0,0 l/m 0,0 km/h (0 Bft) S 180 -2,1 C -1,6 C 0,0 km/h (0 Bft)
18.01.2015 06:30 -1,0 C 1,9 C 92 % 87 % 1017,2 hPa 0,0 l/m 0,0 km/h (0 Bft) S 180 -2,1 C -1,6 C 0,0 km/h (0 Bft)
18.01.2015 06:35 -1,0 C 1,9 C 92 % 87 % 1017,2 hPa 0,0 l/m 0,0 km/h (0 Bft) S 180 -2,1 C -1,6 C 0,0 km/h (0 Bft)
18.01.2015 06:40 -1,0 C 1,9 C 92 % 87 % 1017,1 hPa 0,0 l/m 0,0 km/h (0 Bft) S 180 -2,1 C -1,6 C 0,0 km/h (0 Bft)
18.01.2015 06:45 -1,0 C 1,9 C 92 % 87 % 1017,1 hPa 0,0 l/m 0,0 km/h (0 Bft) S 180 -2,1 C -1,6 C 0,0 km/h (0 Bft)
18.01.2015 06:50 -1,0 C 1,9 C 92 % 87 % 1017,1 hPa 0,0 l/m 0,0 km/h (0 Bft) S 180 -2,1 C -1,6 C 0,0 km/h (0 Bft)
18.01.2015 06:55 -1,0 C 1,9 C 92 % 87 % 1017,1 hPa 0,0 l/m 0,0 km/h (0 Bft) S 180 -2,1 C -1,6 C 0,0 km/h (0 Bft)
18.01.2015 07:00 -1,0 C 1,9 C 92 % 87 % 1017,0 hPa 0,0 l/m 0,0 km/h (0 Bft) S 180 -2,1 C -1,6 C 0,0 km/h (0 Bft)
18.01.2015 07:05 -1,0 C 1,9 C 92 % 87 % 1017,0 hPa 0,0 l/m 0,0 km/h (0 Bft) S 180 -2,1 C -1,6 C 0,0 km/h (0 Bft)
18.01.2015 07:10 -1,0 C 1,9 C 92 % 87 % 1017,0 hPa 0,0 l/m 0,0 km/h (0 Bft) S 180 -2,1 C -1,6 C 0,0 km/h (0 Bft)
18.01.2015 07:15 -1,0 C 1,9 C 92 % 87 % 1017,0 hPa 0,0 l/m 0,0 km/h (0 Bft) S 180 -2,1 C -1,6 C 0,0 km/h (0 Bft)
18.01.2015 07:20 -1,1 C 1,9 C 92 % 87 % 1017,0 hPa 0,0 l/m 0,0 km/h (0 Bft) S 180 -2,2 C -1,7 C 0,0 km/h (0 Bft)
18.01.2015 07:25 -1,1 C 1,9 C 92 % 87 % 1017,0 hPa 0,0 l/m 0,0 km/h (0 Bft) S 180 -2,2 C -1,7 C 0,0 km/h (0 Bft)
18.01.2015 07:30 -1,3 C 1,9 C 92 % 87 % 1017,0 hPa 0,0 l/m 0,0 km/h (0 Bft) S 180 -2,4 C -1,8 C 0,0 km/h (0 Bft)
18.01.2015 07:35 -1,2 C 1,9 C 92 % 87 % 1017,0 hPa 0,0 l/m 0,0 km/h (0 Bft) S 180 -2,3 C -1,7 C 0,0 km/h (0 Bft)
18.01.2015 07:40 -1,1 C 1,9 C 92 % 87 % 1017,1 hPa 0,0 l/m 0,0 km/h (0 Bft) S 180 -2,2 C -1,7 C 0,0 km/h (0 Bft)
18.01.2015 07:45 -1,0 C 1,9 C 92 % 87 % 1017,1 hPa 0,0 l/m 0,0 km/h (0 Bft) S 180 -2,1 C -1,8 C 0,0 km/h (0 Bft)
18.01.2015 07:50 -1,0 C 1,9 C 92 % 87 % 1017,1 hPa 0,0 l/m 0,0 km/h (0 Bft) S 180 -2,1 C -1,7 C 0,0 km/h (0 Bft)
18.01.2015 07:55 -1,0 C 1,9 C 92 % 87 % 1017,1 hPa 0,0 l/m 0,0 km/h (0 Bft) S 180 -2,1 C -1,7 C 0,0 km/h (0 Bft)
18.01.2015 08:00 -1,0 C 1,9 C 92 % 87 % 1017,2 hPa 0,0 l/m 0,0 km/h (0 Bft) S 180 -2,1 C -1,6 C 0,0 km/h (0 Bft)
18.01.2015 08:05 -1,0 C 1,9 C 92 % 87 % 1017,2 hPa 0,0 l/m 0,0 km/h (0 Bft) S 180 -2,1 C -1,7 C 0,0 km/h (0 Bft)
18.01.2015 08:10 -1,1 C 1,9 C 92 % 87 % 1017,2 hPa 0,0 l/m 0,0 km/h (0 Bft) S 180 -2,2 C -1,7 C 0,0 km/h (0 Bft)
18.01.2015 08:15 -1,1 C 1,9 C 92 % 87 % 1017,2 hPa 0,0 l/m 0,0 km/h (0 Bft) S 180 -2,2 C -1,7 C 0,0 km/h (0 Bft)
18.01.2015 08:20 -1,2 C 1,9 C 92 % 86 % 1017,1 hPa 0,0 l/m 0,0 km/h (0 Bft) S 180 -2,3 C -1,8 C 0,0 km/h (0 Bft)
18.01.2015 08:25 -1,2 C 1,9 C 92 % 86 % 1017,1 hPa 0,0 l/m 0,0 km/h (0 Bft) S 180 -2,3 C -1,9 C 0,0 km/h (0 Bft)
18.01.2015 08:30 -1,3 C 1,9 C 92 % 86 % 1017,1 hPa 0,0 l/m 0,0 km/h (0 Bft) S 180 -2,4 C -1,9 C 0,0 km/h (0 Bft)
18.01.2015 08:35 -1,3 C 1,9 C 92 % 86 % 1017,1 hPa 0,0 l/m 0,0 km/h (0 Bft) S 180 -2,4 C -1,9 C 0,0 km/h (0 Bft)
18.01.2015 08:40 -1,5 C 1,9 C 92 % 86 % 1016,9 hPa 0,0 l/m 0,0 km/h (0 Bft) S 180 -2,6 C -1,9 C 0,0 km/h (0 Bft)
18.01.2015 08:45 -1,5 C 1,9 C 92 % 86 % 1016,9 hPa 0,0 l/m 0,0 km/h (0 Bft) S 180 -2,6 C -1,9 C 0,0 km/h (0 Bft)
18.01.2015 08:50 -1,6 C 1,9 C 92 % 86 % 1016,9 hPa 0,0 l/m 0,0 km/h (0 Bft) S 180 -2,7 C -2,1 C 0,0 km/h (0 Bft)
18.01.2015 08:55 -1,7 C 1,9 C 92 % 86 % 1016,9 hPa 0,0 l/m 0,0 km/h (0 Bft) S 180 -2,8 C -2,1 C 0,0 km/h (0 Bft)
18.01.2015 09:00 -1,7 C 1,9 C 92 % 86 % 1017,0 hPa 0,0 l/m 0,0 km/h (0 Bft) S 180 -2,8 C -2,3 C 0,0 km/h (0 Bft)
18.01.2015 09:05 -1,7 C 1,9 C 92 % 86 % 1017,0 hPa 0,0 l/m 0,0 km/h (0 Bft) S 180 -2,8 C -2,3 C 0,0 km/h (0 Bft)
18.01.2015 09:10 -1,6 C 1,9 C 92 % 86 % 1017,0 hPa 0,0 l/m 0,0 km/h (0 Bft) S 180 -2,7 C -2,3 C 0,0 km/h (0 Bft)
18.01.2015 09:15 -1,7 C 1,9 C 92 % 86 % 1017,0 hPa 0,0 l/m 0,0 km/h (0 Bft) S 180 -2,8 C -2,2 C 0,0 km/h (0 Bft)
18.01.2015 09:20 -1,7 C 1,9 C 92 % 86 % 1017,1 hPa 0,0 l/m 0,0 km/h (0 Bft) S 180 -2,8 C -2,2 C 0,0 km/h (0 Bft)
18.01.2015 09:25 -1,7 C 1,9 C 92 % 86 % 1017,1 hPa 0,0 l/m 0,0 km/h (0 Bft) S 180 -2,8 C -2,2 C 0,0 km/h (0 Bft)
18.01.2015 09:30 -1,5 C 1,9 C 92 % 86 % 1017,1 hPa 0,0 l/m 0,0 km/h (0 Bft) S 180 -2,6 C -2,1 C 0,0 km/h (0 Bft)
18.01.2015 09:35 -1,4 C 1,9 C 92 % 86 % 1017,1 hPa 0,0 l/m 0,0 km/h (0 Bft) S 180 -2,5 C -1,9 C 0,0 km/h (0 Bft)
18.01.2015 09:40 -0,7 C 1,9 C 92 % 86 % 1017,2 hPa 0,0 l/m 0,0 km/h (0 Bft) S 180 -1,8 C -1,7 C 0,0 km/h (0 Bft)
18.01.2015 09:45 -0,4 C 1,9 C 92 % 86 % 1017,2 hPa 0,0 l/m 0,0 km/h (0 Bft) S 180 -1,5 C -1,2 C 0,0 km/h (0 Bft)
18.01.2015 09:50 0,0 C 1,8 C 93 % 86 % 1017,2 hPa 0,0 l/m 0,0 km/h (0 Bft) S 180 -1,0 C -0,7 C 0,0 km/h (0 Bft)
18.01.2015 09:55 0,2 C 1,8 C 93 % 86 % 1017,2 hPa 0,0 l/m 0,0 km/h (0 Bft) S 180 -0,8 C -0,5 C 0,0 km/h (0 Bft)
18.01.2015 10:00 -0,2 C 1,8 C 92 % 86 % 1016,7 hPa 0,0 l/m 0,0 km/h (0 Bft) S 180 -1,3 C -0,3 C 0,0 km/h (0 Bft)
18.01.2015 10:05 -0,6 C 1,8 C 92 % 86 % 1016,7 hPa 0,0 l/m 0,0 km/h (0 Bft) S 180 -1,7 C -0,5 C 0,0 km/h (0 Bft)
18.01.2015 10:10 -0,7 C 1,8 C 92 % 86 % 1016,7 hPa 0,0 l/m 0,0 km/h (0 Bft) S 180 -1,8 C -0,9 C 0,0 km/h (0 Bft)
18.01.2015 10:15 -0,7 C 1,8 C 91 % 86 % 1016,7 hPa 0,0 l/m 0,0 km/h (0 Bft) S 180 -2,0 C -1,0 C 0,0 km/h (0 Bft)
18.01.2015 10:20 -0,6 C 1,8 C 91 % 85 % 1016,8 hPa 0,0 l/m 0,0 km/h (0 Bft) S 180 -1,9 C -1,0 C 0,0 km/h (0 Bft)
18.01.2015 10:25 -0,2 C 1,8 C 91 % 85 % 1016,8 hPa 0,0 l/m 0,0 km/h (0 Bft) S 180 -1,5 C -0,9 C 0,0 km/h (0 Bft)
18.01.2015 10:30 0,2 C 1,8 C 91 % 85 % 1016,8 hPa 0,0 l/m 0,0 km/h (0 Bft) S 180 -1,1 C -0,6 C 0,0 km/h (0 Bft)
18.01.2015 10:35 0,5 C 1,8 C 91 % 85 % 1016,8 hPa 0,0 l/m 0,0 km/h (0 Bft) S 180 -0,8 C -0,3 C 0,0 km/h (0 Bft)
18.01.2015 10:40 0,7 C 1,8 C 91 % 85 % 1016,8 hPa 0,0 l/m 0,0 km/h (0 Bft) S 180 -0,6 C 0,1 C 0,0 km/h (0 Bft)
18.01.2015 10:45 1,0 C 1,8 C 91 % 85 % 1016,8 hPa 0,0 l/m 0,0 km/h (0 Bft) S 180 -0,3 C 0,2 C 0,0 km/h (0 Bft)
18.01.2015 10:50 1,0 C 1,8 C 90 % 85 % 1016,8 hPa 0,0 l/m 0,0 km/h (0 Bft) O-NO 67 -0,5 C 0,4 C 0,0 km/h (0 Bft)
18.01.2015 10:55 1,1 C 1,8 C 89 % 85 % 1016,8 hPa 0,0 l/m 0,0 km/h (0 Bft) NO 45 -0,5 C 0,6 C 0,0 km/h (0 Bft)
18.01.2015 11:00 0,9 C 1,8 C 88 % 84 % 1016,7 hPa 0,0 l/m 0,0 km/h (0 Bft) O-NO 67 -0,9 C 0,7 C 0,0 km/h (0 Bft)
18.01.2015 11:05 1,0 C 1,9 C 86 % 83 % 1016,7 hPa 0,0 l/m 0,0 km/h (0 Bft) O-NO 67 -1,1 C 0,7 C 0,0 km/h (0 Bft)
18.01.2015 11:10 1,3 C 1,9 C 85 % 83 % 1016,7 hPa 0,0 l/m 0,0 km/h (0 Bft) O-NO 67 -0,9 C 0,9 C 0,0 km/h (0 Bft)
18.01.2015 11:15 1,4 C 1,9 C 84 % 82 % 1016,7 hPa 0,0 l/m 0,0 km/h (0 Bft) O 90 -1,0 C 1,0 C 0,0 km/h (0 Bft)
18.01.2015 11:20 1,4 C 1,9 C 83 % 82 % 1016,6 hPa 0,0 l/m 0,0 km/h (0 Bft) O-NO 67 -1,2 C 1,3 C 0,0 km/h (0 Bft)
18.01.2015 11:25 1,6 C 1,9 C 83 % 81 % 1016,6 hPa 0,0 l/m 0,0 km/h (0 Bft) NO 45 -1,0 C 1,4 C 0,0 km/h (0 Bft)
18.01.2015 11:30 1,5 C 1,9 C 82 % 80 % 1016,6 hPa 0,0 l/m 0,0 km/h (0 Bft) NO 45 -1,2 C 1,6 C 0,0 km/h (0 Bft)
18.01.2015 11:35 1,8 C 1,9 C 82 % 80 % 1016,6 hPa 0,0 l/m 0,0 km/h (0 Bft) O-SO 112 -0,9 C 1,7 C 0,0 km/h (0 Bft)
18.01.2015 11:40 1,9 C 1,9 C 80 % 79 % 1016,5 hPa 0,0 l/m 0,0 km/h (0 Bft) O 90 -1,2 C 2,3 C 0,0 km/h (0 Bft)
18.01.2015 11:45 1,7 C 1,9 C 79 % 79 % 1016,5 hPa 0,0 l/m 0,0 km/h (0 Bft) O-NO 67 -1,5 C 2,5 C 0,0 km/h (0 Bft)
18.01.2015 11:50 2,0 C 1,9 C 79 % 79 % 1016,5 hPa 0,0 l/m 0,8 km/h (0 Bft) O-SO 112 -1,2 C 2,4 C 2,1 km/h (1 Bft)
18.01.2015 11:55 1,9 C 1,9 C 79 % 78 % 1016,5 hPa 0,0 l/m 0,8 km/h (0 Bft) O-SO 112 -1,3 C 2,4 C 2,1 km/h (1 Bft)
18.01.2015 12:00 2,5 C 1,9 C 78 % 78 % 1016,2 hPa 0,0 l/m 0,0 km/h (0 Bft) SW 225 -0,9 C 3,1 C 0,0 km/h (0 Bft)
18.01.2015 12:05 2,2 C 1,9 C 77 % 78 % 1016,2 hPa 0,0 l/m 0,0 km/h (0 Bft) O-NO 67 -1,4 C 3,1 C 0,0 km/h (0 Bft)
18.01.2015 12:10 1,8 C 1,9 C 77 % 77 % 1016,2 hPa 0,0 l/m 0,0 km/h (0 Bft) O-NO 67 -1,8 C 2,9 C 0,0 km/h (0 Bft)
18.01.2015 12:15 1,6 C 1,9 C 77 % 77 % 1016,2 hPa 0,0 l/m 0,0 km/h (0 Bft) O-NO 67 -2,0 C 2,7 C 0,0 km/h (0 Bft)
18.01.2015 12:20 1,8 C 1,9 C 78 % 77 % 1016,2 hPa 0,0 l/m 0,0 km/h (0 Bft) SO 135 -1,6 C 2,4 C 0,0 km/h (0 Bft)
18.01.2015 12:25 1,6 C 1,9 C 78 % 77 % 1016,2 hPa 0,0 l/m 0,0 km/h (0 Bft) O-NO 67 -1,8 C 2,4 C 0,0 km/h (0 Bft)
18.01.2015 12:30 1,9 C 1,9 C 78 % 77 % 1016,2 hPa 0,0 l/m 0,0 km/h (0 Bft) SO 135 -1,5 C 2,4 C 0,0 km/h (0 Bft)
18.01.2015 12:35 1,6 C 1,9 C 78 % 77 % 1016,2 hPa 0,0 l/m 0,0 km/h (0 Bft) NO 45 -1,8 C 2,4 C 0,0 km/h (0 Bft)
18.01.2015 12:40 1,6 C 1,9 C 78 % 77 % 1016,1 hPa 0,0 l/m 0,0 km/h (0 Bft) O-SO 112 -1,8 C 2,4 C 0,0 km/h (0 Bft)
18.01.2015 12:45 1,6 C 1,9 C 78 % 77 % 1016,1 hPa 0,0 l/m 0,0 km/h (0 Bft) NO 45 -1,8 C 2,3 C 0,0 km/h (0 Bft)
18.01.2015 12:50 1,6 C 1,9 C 79 % 77 % 1016,1 hPa 0,0 l/m 0,0 km/h (0 Bft) O-SO 112 -1,6 C 2,0 C 0,0 km/h (0 Bft)
18.01.2015 12:55 1,7 C 1,9 C 79 % 77 % 1016,1 hPa 0,0 l/m 0,0 km/h (0 Bft) O-SO 112 -1,5 C 2,0 C 0,0 km/h (0 Bft)
18.01.2015 13:00 1,2 C 1,9 C 78 % 77 % 1015,8 hPa 0,0 l/m 0,5 km/h (0 Bft) O-SO 112 -2,2 C 1,9 C 4,2 km/h (1 Bft)
18.01.2015 13:05 1,9 C 1,9 C 78 % 77 % 1015,8 hPa 0,0 l/m 0,5 km/h (0 Bft) O-SO 112 -1,5 C 2,0 C 0,0 km/h (0 Bft)
18.01.2015 13:10 1,5 C 1,9 C 78 % 77 % 1015,8 hPa 0,0 l/m 0,0 km/h (0 Bft) O-SO 112 -1,9 C 2,2 C 0,0 km/h (0 Bft)
18.01.2015 13:15 1,4 C 1,9 C 78 % 77 % 1015,8 hPa 0,0 l/m 0,0 km/h (0 Bft) O-SO 112 -2,0 C 2,2 C 0,0 km/h (0 Bft)
18.01.2015 13:20 1,4 C 1,9 C 78 % 77 % 1015,5 hPa 0,0 l/m 0,0 km/h (0 Bft) NW 315 -2,0 C 1,9 C 0,0 km/h (0 Bft)
18.01.2015 13:25 1,2 C 1,9 C 78 % 77 % 1015,5 hPa 0,0 l/m 0,0 km/h (0 Bft) NO 45 -2,2 C 1,7 C 0,0 km/h (0 Bft)
18.01.2015 13:30 0,8 C 1,8 C 79 % 77 % 1015,5 hPa 0,0 l/m 0,6 km/h (0 Bft) O-NO 67 -2,4 C 1,3 C 0,0 km/h (0 Bft)
18.01.2015 13:35 1,1 C 1,8 C 80 % 78 % 1015,5 hPa 0,0 l/m 0,6 km/h (0 Bft) O-NO 67 -2,0 C 1,2 C 0,0 km/h (0 Bft)
18.01.2015 13:40 0,8 C 1,8 C 80 % 78 % 1015,3 hPa 0,0 l/m 0,5 km/h (0 Bft) O 90 -2,2 C 1,1 C 5,0 km/h (1 Bft)
18.01.2015 13:45 0,9 C 1,8 C 80 % 78 % 1015,3 hPa 0,0 l/m 0,5 km/h (0 Bft) N-NW 337 -2,2 C 1,1 C 0,0 km/h (0 Bft)
18.01.2015 13:50 0,8 C 1,8 C 80 % 78 % 1015,3 hPa 0,0 l/m 0,0 km/h (0 Bft) O-NO 67 -2,2 C 0,9 C 0,0 km/h (0 Bft)
18.01.2015 13:55 0,8 C 1,8 C 80 % 78 % 1015,3 hPa 0,0 l/m 0,0 km/h (0 Bft) NO 45 -2,2 C 0,9 C 0,0 km/h (0 Bft)
18.01.2015 14:00 0,7 C 1,8 C 81 % 78 % 1015,2 hPa 0,0 l/m 0,0 km/h (0 Bft) O-SO 112 -2,2 C 0,9 C 0,0 km/h (0 Bft)
18.01.2015 14:05 1,0 C 1,8 C 81 % 78 % 1015,2 hPa 0,0 l/m 0,0 km/h (0 Bft) N-NO 22 -1,9 C 0,9 C 0,0 km/h (0 Bft)
18.01.2015 14:10 0,9 C 1,8 C 81 % 78 % 1015,2 hPa 0,0 l/m 0,0 km/h (0 Bft) O-SO 112 -2,0 C 1,0 C 0,0 km/h (0 Bft)
18.01.2015 14:15 1,0 C 1,8 C 81 % 78 % 1015,2 hPa 0,0 l/m 0,0 km/h (0 Bft) NO 45 -1,9 C 1,1 C 0,0 km/h (0 Bft)
18.01.2015 14:20 0,6 C 1,8 C 81 % 78 % 1014,8 hPa 0,0 l/m 0,0 km/h (0 Bft) O-NO 67 -2,3 C 0,9 C 0,0 km/h (0 Bft)
18.01.2015 14:25 0,4 C 1,8 C 82 % 78 % 1014,8 hPa 0,0 l/m 0,0 km/h (0 Bft) NO 45 -2,3 C 0,8 C 0,0 km/h (0 Bft)
18.01.2015 14:30 0,5 C 1,8 C 82 % 79 % 1014,8 hPa 0,0 l/m 0,0 km/h (0 Bft) N-NO 22 -2,2 C 0,6 C 0,0 km/h (0 Bft)
18.01.2015 14:35 0,6 C 1,8 C 82 % 79 % 1014,8 hPa 0,0 l/m 0,0 km/h (0 Bft) N-NW 337 -2,1 C 0,7 C 0,0 km/h (0 Bft)
18.01.2015 14:40 0,5 C 1,8 C 83 % 79 % 1014,9 hPa 0,0 l/m 0,0 km/h (0 Bft) NO 45 -2,0 C 0,6 C 0,0 km/h (0 Bft)
18.01.2015 14:45 0,7 C 1,8 C 83 % 79 % 1014,9 hPa 0,0 l/m 0,0 km/h (0 Bft) NO 45 -1,8 C 0,6 C 0,0 km/h (0 Bft)
18.01.2015 14:50 0,2 C 1,8 C 83 % 79 % 1014,9 hPa 0,0 l/m 0,3 km/h (0 Bft) O-NO 67 -2,3 C 0,4 C 0,0 km/h (0 Bft)
18.01.2015 14:55 0,1 C 1,8 C 83 % 79 % 1014,9 hPa 0,0 l/m 0,5 km/h (0 Bft) O-NO 67 -2,4 C 0,2 C 0,0 km/h (0 Bft)
18.01.2015 15:00 0,4 C 1,8 C 83 % 79 % 1014,6 hPa 0,0 l/m 0,2 km/h (0 Bft) O-NO 67 -2,1 C 0,2 C 0,0 km/h (0 Bft)
18.01.2015 15:05 0,3 C 1,8 C 83 % 79 % 1014,6 hPa 0,0 l/m 0,0 km/h (0 Bft) O 90 -2,2 C 0,2 C 0,0 km/h (0 Bft)
18.01.2015 15:10 0,1 C 1,8 C 83 % 79 % 1014,6 hPa 0,0 l/m 0,0 km/h (0 Bft) NO 45 -2,4 C 0,2 C 0,0 km/h (0 Bft)
18.01.2015 15:15 0,1 C 1,8 C 84 % 79 % 1014,6 hPa 0,0 l/m 0,0 km/h (0 Bft) O-NO 67 -2,3 C 0,1 C 0,0 km/h (0 Bft)
18.01.2015 15:20 0,2 C 1,8 C 84 % 80 % 1014,6 hPa 0,0 l/m 0,0 km/h (0 Bft) NW 315 -2,2 C 0,2 C 0,0 km/h (0 Bft)
18.01.2015 15:25 0,1 C 1,8 C 84 % 80 % 1014,6 hPa 0,0 l/m 0,0 km/h (0 Bft) O-SO 112 -2,3 C 0,1 C 0,0 km/h (0 Bft)
18.01.2015 15:30 -0,2 C 1,8 C 84 % 80 % 1014,6 hPa 0,0 l/m 0,0 km/h (0 Bft) N-NO 22 -2,6 C -0,2 C 0,0 km/h (0 Bft)
18.01.2015 15:35 -0,2 C 1,8 C 85 % 80 % 1014,6 hPa 0,0 l/m 0,0 km/h (0 Bft) O-NO 67 -2,4 C -0,3 C 0,0 km/h (0 Bft)
18.01.2015 15:40 -0,4 C 1,8 C 85 % 81 % 1014,5 hPa 0,0 l/m 0,0 km/h (0 Bft) SO 135 -2,6 C -0,4 C 0,0 km/h (0 Bft)
18.01.2015 15:45 -0,3 C 1,8 C 85 % 81 % 1014,5 hPa 0,0 l/m 0,0 km/h (0 Bft) O-NO 67 -2,5 C -0,5 C 0,0 km/h (0 Bft)
18.01.2015 15:50 -0,4 C 1,8 C 86 % 81 % 1014,5 hPa 0,0 l/m 0,0 km/h (0 Bft) NO 45 -2,4 C -0,6 C 0,0 km/h (0 Bft)
18.01.2015 15:55 -0,5 C 1,8 C 86 % 81 % 1014,5 hPa 0,0 l/m 0,2 km/h (0 Bft) O 90 -2,5 C -0,8 C 0,0 km/h (0 Bft)
18.01.2015 16:00 -0,7 C 1,8 C 86 % 82 % 1014,8 hPa 0,0 l/m 0,5 km/h (0 Bft) O-NO 67 -2,7 C -1,0 C 0,0 km/h (0 Bft)
18.01.2015 16:05 -0,8 C 1,8 C 87 % 82 % 1014,8 hPa 0,0 l/m 1,1 km/h (1 Bft) O-NO 67 -2,7 C -1,0 C 2,3 km/h (1 Bft)
18.01.2015 16:10 -0,8 C 1,9 C 87 % 82 % 1014,8 hPa 0,0 l/m 1,0 km/h (0 Bft) O-NO 67 -2,7 C -1,2 C 5,8 km/h (2 Bft)
18.01.2015 16:15 -0,8 C 1,9 C 88 % 83 % 1014,8 hPa 0,0 l/m 0,5 km/h (0 Bft) SO 135 -2,5 C -1,2 C 0,0 km/h (0 Bft)
18.01.2015 16:20 -0,9 C 1,9 C 88 % 83 % 1014,4 hPa 0,0 l/m 0,0 km/h (0 Bft) NO 45 -2,6 C -1,2 C 0,0 km/h (0 Bft)
18.01.2015 16:25 -0,8 C 1,9 C 88 % 83 % 1014,4 hPa 0,0 l/m 0,0 km/h (0 Bft) W 270 -2,5 C -1,3 C 0,0 km/h (0 Bft)
18.01.2015 16:30 -0,9 C 1,9 C 88 % 83 % 1014,4 hPa 0,0 l/m 0,0 km/h (0 Bft) W-NW 292 -2,6 C -1,4 C 0,0 km/h (0 Bft)
18.01.2015 16:35 -0,9 C 1,9 C 88 % 83 % 1014,4 hPa 0,0 l/m 0,0 km/h (0 Bft) NO 45 -2,6 C -1,4 C 0,0 km/h (0 Bft)
18.01.2015 16:40 -1,0 C 1,9 C 88 % 83 % 1014,1 hPa 0,0 l/m 0,0 km/h (0 Bft) NO 45 -2,7 C -1,5 C 0,0 km/h (0 Bft)
18.01.2015 16:45 -1,0 C 1,9 C 88 % 83 % 1014,1 hPa 0,0 l/m 0,0 km/h (0 Bft) SO 135 -2,7 C -1,5 C 0,0 km/h (0 Bft)
18.01.2015 16:50 -1,0 C 1,9 C 88 % 84 % 1014,1 hPa 0,0 l/m 0,0 km/h (0 Bft) NO 45 -2,7 C -1,6 C 0,0 km/h (0 Bft)
18.01.2015 16:55 -1,0 C 1,9 C 88 % 84 % 1014,1 hPa 0,0 l/m 0,0 km/h (0 Bft) O-SO 112 -2,7 C -1,6 C 0,0 km/h (0 Bft)
18.01.2015 17:00 -1,1 C 1,9 C 89 % 84 % 1014,2 hPa 0,0 l/m 0,0 km/h (0 Bft) O-NO 67 -2,7 C -1,7 C 0,0 km/h (0 Bft)
18.01.2015 17:05 -1,1 C 1,9 C 89 % 84 % 1014,2 hPa 0,0 l/m 0,0 km/h (0 Bft) NO 45 -2,7 C -1,7 C 0,0 km/h (0 Bft)
18.01.2015 17:10 -1,1 C 1,9 C 89 % 84 % 1014,2 hPa 0,0 l/m 0,0 km/h (0 Bft) O-SO 112 -2,7 C -1,7 C 0,0 km/h (0 Bft)
18.01.2015 17:15 -1,1 C 1,9 C 89 % 84 % 1014,2 hPa 0,0 l/m 0,0 km/h (0 Bft) NO 45 -2,7 C -1,8 C 0,0 km/h (0 Bft)
18.01.2015 17:20 -1,1 C 1,9 C 89 % 84 % 1014,2 hPa 0,0 l/m 0,0 km/h (0 Bft) O 90 -2,7 C -1,7 C 0,0 km/h (0 Bft)
18.01.2015 17:25 -1,2 C 1,9 C 89 % 84 % 1014,2 hPa 0,0 l/m 0,0 km/h (0 Bft) S 180 -2,8 C -1,8 C 0,0 km/h (0 Bft)
18.01.2015 17:30 -1,2 C 1,9 C 89 % 84 % 1014,2 hPa 0,0 l/m 0,0 km/h (0 Bft) W 270 -2,8 C -1,8 C 0,0 km/h (0 Bft)
18.01.2015 17:35 -1,2 C 1,9 C 89 % 84 % 1014,2 hPa 0,0 l/m 0,0 km/h (0 Bft) NW 315 -2,8 C -1,8 C 0,0 km/h (0 Bft)
18.01.2015 17:40 -1,2 C 1,9 C 89 % 84 % 1014,2 hPa 0,0 l/m 0,0 km/h (0 Bft) SO 135 -2,8 C -1,9 C 0,0 km/h (0 Bft)
18.01.2015 17:45 -1,2 C 1,9 C 89 % 84 % 1014,2 hPa 0,0 l/m 0,0 km/h (0 Bft) O-SO 112 -2,8 C -1,9 C 0,0 km/h (0 Bft)
18.01.2015 17:50 -1,2 C 1,9 C 89 % 84 % 1014,2 hPa 0,0 l/m 0,0 km/h (0 Bft) N 360 -2,8 C -1,9 C 0,0 km/h (0 Bft)
18.01.2015 17:55 -1,2 C 1,9 C 89 % 84 % 1014,2 hPa 0,0 l/m 0,0 km/h (0 Bft) O-SO 112 -2,8 C -1,9 C 0,0 km/h (0 Bft)
18.01.2015 18:00 -1,2 C 1,9 C 89 % 84 % 1014,2 hPa 0,0 l/m 0,0 km/h (0 Bft) O-NO 67 -2,8 C -1,8 C 0,0 km/h (0 Bft)
18.01.2015 18:05 -1,2 C 1,9 C 89 % 85 % 1014,2 hPa 0,0 l/m 0,0 km/h (0 Bft) O-NO 67 -2,8 C -1,8 C 0,0 km/h (0 Bft)
18.01.2015 18:10 -1,2 C 1,9 C 89 % 85 % 1014,2 hPa 0,0 l/m 0,0 km/h (0 Bft) O-NO 67 -2,8 C -1,8 C 0,0 km/h (0 Bft)
18.01.2015 18:15 -1,2 C 1,9 C 89 % 85 % 1014,2 hPa 0,0 l/m 0,0 km/h (0 Bft) O-NO 67 -2,8 C -1,8 C 0,0 km/h (0 Bft)
18.01.2015 18:20 -1,2 C 1,9 C 90 % 85 % 1014,2 hPa 0,0 l/m 0,0 km/h (0 Bft) O-NO 67 -2,6 C -1,8 C 0,0 km/h (0 Bft)
18.01.2015 18:25 -1,3 C 1,9 C 90 % 85 % 1014,2 hPa 0,0 l/m 0,0 km/h (0 Bft) NO 45 -2,7 C -1,8 C 0,0 km/h (0 Bft)
18.01.2015 18:30 -1,3 C 1,9 C 90 % 85 % 1014,2 hPa 0,0 l/m 0,0 km/h (0 Bft) NO 45 -2,7 C -1,9 C 0,0 km/h (0 Bft)
18.01.2015 18:35 -1,3 C 1,9 C 90 % 85 % 1014,2 hPa 0,0 l/m 0,0 km/h (0 Bft) O-SO 112 -2,7 C -1,9 C 0,0 km/h (0 Bft)
18.01.2015 18:40 -1,3 C 1,9 C 90 % 85 % 1014,3 hPa 0,0 l/m 0,0 km/h (0 Bft) O-NO 67 -2,7 C -1,9 C 0,0 km/h (0 Bft)
18.01.2015 18:45 -1,3 C 1,9 C 90 % 85 % 1014,3 hPa 0,0 l/m 0,0 km/h (0 Bft) O-NO 67 -2,7 C -1,9 C 0,0 km/h (0 Bft)
18.01.2015 18:50 -1,3 C 1,9 C 90 % 85 % 1014,3 hPa 0,0 l/m 0,0 km/h (0 Bft) NO 45 -2,7 C -1,9 C 0,0 km/h (0 Bft)
18.01.2015 18:55 -1,3 C 1,9 C 90 % 85 % 1014,3 hPa 0,0 l/m 0,0 km/h (0 Bft) NO 45 -2,7 C -1,9 C 0,0 km/h (0 Bft)
18.01.2015 19:00 -1,3 C 1,9 C 90 % 85 % 1014,2 hPa 0,0 l/m 0,0 km/h (0 Bft) NO 45 -2,7 C -1,9 C 0,0 km/h (0 Bft)
18.01.2015 19:05 -1,3 C 1,9 C 90 % 85 % 1014,2 hPa 0,0 l/m 0,0 km/h (0 Bft) S-SO 157 -2,7 C -1,9 C 0,0 km/h (0 Bft)
18.01.2015 19:10 -1,3 C 1,9 C 90 % 85 % 1014,2 hPa 0,0 l/m 0,0 km/h (0 Bft) O-NO 67 -2,7 C -1,9 C 0,0 km/h (0 Bft)
18.01.2015 19:15 -1,4 C 1,9 C 90 % 85 % 1014,2 hPa 0,0 l/m 0,0 km/h (0 Bft) O 90 -2,8 C -1,9 C 0,0 km/h (0 Bft)
18.01.2015 19:20 -1,4 C 1,9 C 90 % 85 % 1014,4 hPa 0,0 l/m 0,0 km/h (0 Bft) O-SO 112 -2,8 C -1,9 C 0,0 km/h (0 Bft)
18.01.2015 19:25 -1,4 C 1,9 C 90 % 85 % 1014,4 hPa 0,0 l/m 0,0 km/h (0 Bft) O-SO 112 -2,8 C -1,9 C 0,0 km/h (0 Bft)
18.01.2015 19:30 -1,4 C 1,9 C 91 % 85 % 1014,4 hPa 0,0 l/m 0,0 km/h (0 Bft) NO 45 -2,7 C -1,9 C 0,0 km/h (0 Bft)
18.01.2015 19:35 -1,4 C 1,9 C 91 % 85 % 1014,4 hPa 0,0 l/m 0,5 km/h (0 Bft) O-NO 67 -2,7 C -2,0 C 2,7 km/h (1 Bft)
18.01.2015 19:40 -1,5 C 1,9 C 91 % 86 % 1014,2 hPa 0,0 l/m 0,6 km/h (0 Bft) N-NO 22 -2,8 C -2,0 C 0,0 km/h (0 Bft)
18.01.2015 19:45 -1,5 C 1,9 C 91 % 86 % 1014,2 hPa 0,0 l/m 0,5 km/h (0 Bft) O-NO 67 -2,8 C -2,0 C 0,0 km/h (0 Bft)
18.01.2015 19:50 -1,5 C 1,9 C 91 % 86 % 1014,2 hPa 0,0 l/m 0,0 km/h (0 Bft) NO 45 -2,8 C -2,1 C 0,0 km/h (0 Bft)
18.01.2015 19:55 -1,5 C 1,9 C 92 % 86 % 1014,2 hPa 0,0 l/m 0,0 km/h (0 Bft) N-NO 22 -2,6 C -2,1 C 0,0 km/h (0 Bft)
18.01.2015 20:00 -1,5 C 1,9 C 92 % 86 % 1014,1 hPa 0,0 l/m 0,0 km/h (0 Bft) O-SO 112 -2,6 C -2,1 C 0,0 km/h (0 Bft)
18.01.2015 20:05 -1,6 C 1,9 C 92 % 86 % 1014,1 hPa 0,0 l/m 0,2 km/h (0 Bft) NO 45 -2,7 C -2,1 C 0,0 km/h (0 Bft)
18.01.2015 20:10 -1,6 C 1,8 C 92 % 86 % 1014,1 hPa 0,0 l/m 0,2 km/h (0 Bft) NO 45 -2,7 C -2,1 C 0,0 km/h (0 Bft)
18.01.2015 20:15 -1,6 C 1,8 C 92 % 86 % 1014,1 hPa 0,0 l/m 0,0 km/h (0 Bft) O-NO 67 -2,7 C -2,1 C 0,0 km/h (0 Bft)
18.01.2015 20:20 -1,6 C 1,8 C 92 % 86 % 1014,0 hPa 0,0 l/m 0,0 km/h (0 Bft) NO 45 -2,7 C -2,1 C 0,0 km/h (0 Bft)
18.01.2015 20:25 -1,6 C 1,8 C 92 % 86 % 1014,0 hPa 0,0 l/m 0,0 km/h (0 Bft) O 90 -2,7 C -2,2 C 0,0 km/h (0 Bft)
18.01.2015 20:30 -1,6 C 1,8 C 92 % 86 % 1014,0 hPa 0,0 l/m 0,0 km/h (0 Bft) N-NO 22 -2,7 C -2,2 C 0,0 km/h (0 Bft)
18.01.2015 20:35 -1,6 C 1,8 C 92 % 86 % 1014,0 hPa 0,0 l/m 0,0 km/h (0 Bft) NO 45 -2,7 C -2,2 C 0,0 km/h (0 Bft)
18.01.2015 20:40 -1,6 C 1,8 C 92 % 86 % 1014,1 hPa 0,0 l/m 0,0 km/h (0 Bft) N-NO 22 -2,7 C -2,2 C 0,0 km/h (0 Bft)
18.01.2015 20:45 -1,7 C 1,8 C 92 % 86 % 1014,1 hPa 0,0 l/m 0,0 km/h (0 Bft) N-NO 22 -2,8 C -2,2 C 0,0 km/h (0 Bft)
18.01.2015 20:50 -1,6 C 1,8 C 93 % 86 % 1014,1 hPa 0,0 l/m 0,0 km/h (0 Bft) N-NO 22 -2,6 C -2,2 C 0,0 km/h (0 Bft)
18.01.2015 20:55 -1,6 C 1,8 C 93 % 86 % 1014,1 hPa 0,0 l/m 0,0 km/h (0 Bft) NO 45 -2,6 C -2,2 C 0,0 km/h (0 Bft)
18.01.2015 21:00 -1,6 C 1,8 C 93 % 86 % 1014,2 hPa 0,0 l/m 0,0 km/h (0 Bft) N-NO 22 -2,6 C -2,2 C 0,0 km/h (0 Bft)
18.01.2015 21:05 -1,6 C 1,8 C 93 % 86 % 1014,2 hPa 0,0 l/m 0,0 km/h (0 Bft) O-SO 112 -2,6 C -2,2 C 0,0 km/h (0 Bft)
18.01.2015 21:10 -1,6 C 1,8 C 93 % 86 % 1014,2 hPa 0,0 l/m 0,0 km/h (0 Bft) N-NW 337 -2,6 C -2,2 C 0,0 km/h (0 Bft)
18.01.2015 21:15 -1,7 C 1,8 C 93 % 86 % 1014,2 hPa 0,0 l/m 0,0 km/h (0 Bft) O-NO 67 -2,7 C -2,2 C 0,0 km/h (0 Bft)
18.01.2015 21:20 -1,7 C 1,8 C 93 % 86 % 1014,1 hPa 0,0 l/m 0,0 km/h (0 Bft) O-SO 112 -2,7 C -2,3 C 0,0 km/h (0 Bft)
18.01.2015 21:25 -1,6 C 1,8 C 92 % 86 % 1014,1 hPa 0,0 l/m 0,0 km/h (0 Bft) N-NO 22 -2,7 C -2,3 C 0,0 km/h (0 Bft)
18.01.2015 21:30 -1,6 C 1,8 C 92 % 86 % 1014,1 hPa 0,0 l/m 0,0 km/h (0 Bft) O-NO 67 -2,7 C -2,2 C 0,0 km/h (0 Bft)
18.01.2015 21:35 -1,7 C 1,8 C 92 % 86 % 1014,1 hPa 0,0 l/m 0,0 km/h (0 Bft) O-SO 112 -2,8 C -2,2 C 0,0 km/h (0 Bft)
18.01.2015 21:40 -1,7 C 1,8 C 92 % 86 % 1014,0 hPa 0,0 l/m 0,0 km/h (0 Bft) NO 45 -2,8 C -2,3 C 0,0 km/h (0 Bft)
18.01.2015 21:45 -1,7 C 1,8 C 92 % 86 % 1014,0 hPa 0,0 l/m 0,0 km/h (0 Bft) O-NO 67 -2,8 C -2,3 C 0,0 km/h (0 Bft)
18.01.2015 21:50 -1,7 C 1,8 C 92 % 86 % 1014,0 hPa 0,0 l/m 0,0 km/h (0 Bft) O-NO 67 -2,8 C -2,3 C 0,0 km/h (0 Bft)
18.01.2015 21:55 -1,8 C 1,8 C 92 % 86 % 1014,0 hPa 0,0 l/m 0,0 km/h (0 Bft) O 90 -2,9 C -2,3 C 0,0 km/h (0 Bft)
18.01.2015 22:00 -1,8 C 1,8 C 92 % 86 % 1014,2 hPa 0,0 l/m 0,0 km/h (0 Bft) W-SW 247 -2,9 C -2,3 C 0,0 km/h (0 Bft)
18.01.2015 22:05 -1,8 C 1,8 C 92 % 86 % 1014,2 hPa 0,0 l/m 0,0 km/h (0 Bft) W-SW 247 -2,9 C -2,3 C 0,0 km/h (0 Bft)
18.01.2015 22:10 -1,8 C 1,8 C 92 % 86 % 1015,1 hPa 0,0 l/m 0,0 km/h (0 Bft) O-SO 112 -2,9 C -2,3 C 0,0 km/h (0 Bft)
18.01.2015 22:15 -1,8 C 1,8 C 92 % 86 % 1015,1 hPa 0,0 l/m 0,0 km/h (0 Bft) O-NO 67 -2,9 C -2,4 C 0,0 km/h (0 Bft)
18.01.2015 22:20 -1,8 C 1,8 C 92 % 86 % 1015,1 hPa 0,0 l/m 0,0 km/h (0 Bft) SO 135 -2,9 C -2,4 C 0,0 km/h (0 Bft)
18.01.2015 22:25 -1,8 C 1,8 C 92 % 86 % 1015,1 hPa 0,0 l/m 0,0 km/h (0 Bft) N 360 -2,9 C -2,4 C 0,0 km/h (0 Bft)
18.01.2015 22:30 -1,9 C 1,8 C 91 % 86 % 1014,8 hPa 0,0 l/m 0,3 km/h (0 Bft) N-NO 22 -3,2 C -2,4 C 0,0 km/h (0 Bft)
18.01.2015 22:35 -1,9 C 1,8 C 91 % 86 % 1014,8 hPa 0,0 l/m 0,3 km/h (0 Bft) NO 45 -3,2 C -2,5 C 0,0 km/h (0 Bft)
18.01.2015 22:40 -1,9 C 1,8 C 91 % 86 % 1014,8 hPa 0,0 l/m 0,0 km/h (0 Bft) NO 45 -3,2 C -2,5 C 0,0 km/h (0 Bft)
18.01.2015 22:45 -1,9 C 1,8 C 91 % 86 % 1014,8 hPa 0,0 l/m 0,0 km/h (0 Bft) W-SW 247 -3,2 C -2,5 C 0,0 km/h (0 Bft)
18.01.2015 22:50 -2,0 C 1,8 C 91 % 86 % 1014,8 hPa 0,0 l/m 0,0 km/h (0 Bft) W-SW 247 -3,3 C -2,6 C 0,0 km/h (0 Bft)
18.01.2015 22:55 -2,0 C 1,8 C 91 % 86 % 1014,8 hPa 0,0 l/m 0,0 km/h (0 Bft) S 180 -3,3 C -2,6 C 0,0 km/h (0 Bft)
18.01.2015 23:00 -2,0 C 1,8 C 91 % 86 % 1014,8 hPa 0,0 l/m 0,0 km/h (0 Bft) S-SO 157 -3,3 C -2,6 C 0,0 km/h (0 Bft)
18.01.2015 23:05 -1,9 C 1,8 C 91 % 86 % 1014,8 hPa 0,0 l/m 0,0 km/h (0 Bft) O-SO 112 -3,2 C -2,6 C 0,0 km/h (0 Bft)
18.01.2015 23:10 -2,0 C 1,8 C 91 % 86 % 1014,9 hPa 0,0 l/m 0,0 km/h (0 Bft) W-SW 247 -3,3 C -2,6 C 0,0 km/h (0 Bft)
18.01.2015 23:15 -2,0 C 1,8 C 91 % 86 % 1014,9 hPa 0,0 l/m 0,0 km/h (0 Bft) SW 225 -3,3 C -2,6 C 0,0 km/h (0 Bft)
18.01.2015 23:20 -2,0 C 1,8 C 91 % 86 % 1014,9 hPa 0,0 l/m 0,0 km/h (0 Bft) W-SW 247 -3,3 C -2,6 C 0,0 km/h (0 Bft)
18.01.2015 23:25 -2,0 C 1,8 C 91 % 86 % 1014,9 hPa 0,0 l/m 0,0 km/h (0 Bft) O-SO 112 -3,3 C -2,6 C 0,0 km/h (0 Bft)
18.01.2015 23:30 -2,0 C 1,8 C 91 % 86 % 1014,9 hPa 0,0 l/m 0,0 km/h (0 Bft) SO 135 -3,3 C -2,6 C 0,0 km/h (0 Bft)
18.01.2015 23:35 -2,0 C 1,8 C 90 % 86 % 1014,9 hPa 0,0 l/m 0,0 km/h (0 Bft) S-SO 157 -3,4 C -2,6 C 0,0 km/h (0 Bft)
18.01.2015 23:40 -2,0 C 1,8 C 91 % 86 % 1014,9 hPa 0,0 l/m 0,0 km/h (0 Bft) O-NO 67 -3,3 C -2,6 C 0,0 km/h (0 Bft)
18.01.2015 23:45 -2,0 C 1,8 C 91 % 86 % 1014,9 hPa 0,0 l/m 0,0 km/h (0 Bft) NO 45 -3,3 C -2,6 C 0,0 km/h (0 Bft)
18.01.2015 23:50 -2,1 C 1,8 C 91 % 86 % 1014,6 hPa 0,0 l/m 0,0 km/h (0 Bft) NO 45 -3,4 C -2,6 C 0,0 km/h (0 Bft)
18.01.2015 23:55 -2,1 C 1,8 C 90 % 86 % 1014,6 hPa 0,0 l/m 0,0 km/h (0 Bft) NW 315 -3,5 C -2,7 C 0,0 km/h (0 Bft)
_ Min-Zeit 01:05 23:55 12:15 13:30 21:55 - 23:55 - - 01:05 01:10 23:55
Minimum _ -2,4 C 1,8 C 77 % 77 % 1014,0 hPa - 0,0 km/h (0 Bft) - - -3,7 C -2,9 C 0,0 km/h (0 Bft)
_ Max-Zeit 12:00 20:05 21:20 08:15 03:15 23:55 16:05 - - 10:45 12:05 16:10
Maximum _ 2,5 C 1,9 C 93 % 87 % 1017,6 hPa 0,0 l/m 1,1 km/h
O-NO (1 Bft)
- - -0,3 C 3,1 C 5,8 km/h
O-NO (2 Bft)
Durchschnitt _ -0,8 C 1,9 C 89 % 84 % 1016,0 hPa #0,0 l/m 0,0 km/h (0 Bft) O-NO - -2,4 C -1,1 C 0,1 km/h (0 Bft)